Content
SEND FEEDBACK

Daily
Averages
Monthly
Summary
United States of America

FORT WINGATE, NEW MEXICO


Home > North America > United States > New Mexico
Elevation: 7079 feet     Latitude: 35 28N     Longitude: 108 32W

WEATHER
 
SELECT A DAY
Number of Records: 182,339;   Date Range: 1/1/95 - 7/26/14
 
SHARE

PRINT THIS DATA

[ ← Previous Day ]
WEATHER ALMANAC - FEBRUARY 18, 2013
[ Next Day → ]
[ °C ]   °F
Weather ElementAverageHighLow
Temperature36.1 °F52 °F (3:53 pm)21.9 °F (6:53 am)
Dewpoint4.4 °F14 °F (1:53 am)-6 °F (11:53 am)
Humidity33.2 %66 % (6:53 am)9 % (4:53 pm)
Barometer29.99 in30.19 in (7:53 pm)29.75 in (1:53 am)
Wind Speed3.8 mph10.4 mph (3:53 pm)
Wind Gust20.7 mph (1:53 pm)
Weather ElementAverage
Visibility10 mi
Wind DirectionSE (133.9 °)

Weather ElementTotal
Precipitation---
Heating Degree Days28.1 (Base 65)
Averaged from 23 records on February 18, 2013
WEATHER CONDITIONS BREAKOUT
WIND DIRECTION BREAKOUT
WEATHER BY HOUR - FEBRUARY 18, 2013
[ °C ]   °F
Local TimeTemperatureDewpointHumidityBarometerVisibilityWind DirectionWind SpeedGust SpeedPrecipitationEventsConditions
1:53 AM36.0 °F14.0 °F41 %29.75 in10.0 miWSW (250°)9.2 mphClear
2:53 AM33.1 °F14.0 °F46 %29.77 in10.0 miWSW (250°)3.5 mphClear
3:53 AM30.9 °F14.0 °F50 %29.80 in10.0 miCalmClear
4:53 AM25.0 °F12.9 °F60 %29.90 in10.0 miCalmClear
5:53 AM23.0 °F12.0 °F63 %29.97 in10.0 miCalmClear
6:53 AM21.9 °F12.0 °F66 %30.04 in10.0 miCalmClear
7:53 AM28.0 °F14.0 °F56 %30.05 in10.0 miCalmClear
8:53 AM37.0 °F5.0 °F26 %30.01 in10.0 miNW (310°)6.9 mphClear
9:53 AM39.0 °F1.0 °F20 %30.03 in10.0 miWest (270°)4.6 mphClear
10:53 AM42.1 °F-4.0 °F14 %30.01 in10.0 miVariable3.5 mphClear
11:53 AM46.0 °F-6.0 °F11 %29.99 in10.0 miWNW (290°)9.2 mphClear
12:53 PM48.9 °F-4.0 °F11 %29.97 in10.0 miWest (260°)9.2 mphClear
1:53 PM50.0 °F-5.1 °F10 %29.94 in10.0 miSW (230°)8.1 mph20.7 mphClear
2:53 PM51.1 °F-0.9 °F12 %29.95 in10.0 miWest (260°)5.8 mphClear
3:53 PM52.0 °F-0.9 °F11 %29.94 in10.0 miWNW (290°)10.4 mph16.1 mphClear
4:53 PM51.1 °F-6.0 °F9 %29.99 in10.0 miWNW (300°)5.8 mphClear
5:53 PM46.9 °F-6.0 °F11 %30.04 in10.0 miNW (320°)5.8 mphClear
6:53 PM39.0 °F-0.9 °F19 %30.12 in10.0 miNE (50°)4.6 mphClear
7:53 PM28.0 °F1.9 °F33 %30.19 in10.0 miCalmClear
8:53 PM28.0 °F9.0 °F45 %30.12 in10.0 miCalmClear
9:53 PM24.1 °F7.0 °F48 %30.13 in10.0 miCalmClear
10:53 PM25.0 °F9.0 °F51 %30.09 in10.0 miCalmClear
11:53 PM24.1 °F8.1 °F51 %30.07 in10.0 miCalmClear
Hourly data recorded from KGUP, located miles away from Fort Wingate, New Mexico







STORIES FROM OUR PARTNERS